Погода в Красных Ткачах

Россия / Ярославская область     57°29′44″N   39°45′03″E
темп.,
°C
ветер,
м/с
пор.,
м/с
влажн.,
%
обл.,
%
осадки,
мм/ч
давл.,
гПа
погр.,
м
6 мая, чт
чт600:00+5юв2596100 0.6 1008172
03:00+7юз358899 0.6 1008132
06:00+6юв369696 0.0 1007179
09:00+11ююв61082100 0.0 1006523
12:00+16ю9156990 0.0 10041568
15:00+16ю101766100 0.2 10031906
18:00+13ю101869100 0.4 10021556
21:00+10ююз91381100 0.5 10031012
7 мая, пт
пт700:00+7юз5108898 0.9 1006581
03:00+6юз51091100 0.9 1007662
06:00+5ююз5109210 0.0 1009486
09:00+9юз79676 0.0 10101242
12:00+12зюз71048100 0.0 10102424
15:00+13юз7114276 0.0 10112547
18:00+11ююз6106434 0.3 1011980
21:00+7ю388562 0.4 1013160
8 мая, сб
сб800:00+7ю3782100 0.0 1013125
03:00+6ююв51481100 0.0 1012343
06:00+8ююв61569100 0.0 1011465
09:00+11ююв71564100 0.0 1009900
12:00+14ююв81464100 0.1 10061889
15:00+10ююв81586100 2.7 10051130
18:00+10ююв71494100 0.9 1003836
21:00+10ююз51097100 3.2 1001731
9 мая, вс
вс900:00+7юз61090100 3.6 1002773
03:00+4ююз51288100 3.8 1004783
06:00+5ююз71282100 0.0 10041096
09:00+5юз71189100 0.1 10071105
12:00+5зюз61188100 0.2 10111090
15:00+8зсз61170100 0.4 10141551
18:00+9ссз596099 0.1 10171089
21:00+5ссз22722 0.1 102024
10 мая, пн
пн1000:00+2зсз34800 0.0 102256
03:00+1ссз22810 0.0 102434
06:00+3с12760 0.0 102775
09:00+9св11558 0.0 1027501
12:00+12с12408 0.0 10271207
15:00+14св013762 0.0 10271439
18:00+13вюв114732 0.0 1028733
21:00+8юв22593 0.0 102911